Weather History for Bandar Lengeh, Iran

Change the Weather History Date:

Wednesday, February 27, 2013

  Actual Average Record
Temperature  
Mean Temperature 70 °F -  
Max Temperature 78 °F 79 °F - ()
Min Temperature 62 °F 62 °F - ()
Cooling Degree Days 5    
Growing Degree Days 20 (Base 50)    
Moisture  
Dew Point 58 °F    
Average Humidity 63    
Maximum Humidity 83    
Minimum Humidity 39    
Precipitation  
Precipitation 0.00 in 0.04 in - ()
Sea Level Pressure  
Sea Level Pressure 30.07 in    
Wind  
Wind Speed 4 mph ()    
Max Wind Speed 14 mph    
Max Gust Speed -    
Visibility 4.3 miles    
Events      
T = Trace of Precipitation, MM = Missing Value Source: Averaged Metar Reports

Daily Weather History Graph

Daily Weather History Graph

Search for Another Location

Airport:

Trip Planner

Search our weather history database for the weather conditions in past years. The results will help you decide how hot, cold, wet, or windy it might be!

Date:

Astronomy

Feb. 27, 2013 Rise Set
Actual Time 6:16 AM IRST 5:50 PM IRST
Civil Twilight 5:53 AM IRST 6:14 PM IRST
Nautical Twilight 5:26 AM IRST 6:40 PM IRST
Astronomical Twilight 4:59 AM IRST 7:07 PM IRST
Moon 7:29 PM IRST (2/27) 6:51 AM IRST (2/27)
Length of Visible Light 12h 20m
Length of Day
11h 34m
Full, 97% of the Moon is Illuminated
Feb 27
Full
Mar 5
Last Quarter
Mar 11
New
Mar 19
First Quarter
Mar 27
Full

Hourly Weather History & Observations

Time (IRST) Temp. Dew Point Humidity Pressure Visibility Wind Dir Wind Speed Gust Speed Precip Events Conditions
12:20 AM 66.2 °F 59.0 °F 78% 30.09 in - Calm Calm - N/A   Clear
12:30 AM 66.2 °F 59.0 °F 78% 30.09 in - Calm Calm - N/A   Clear
3:30 AM 65 °F 56 °F 64% 30.09 in 6 mi Calm Calm - -  
3:30 AM 64.4 °F 55.4 °F 73% 30.06 in - Calm Calm - N/A   Clear
5:30 AM 62.6 °F 53.6 °F 72% 30.06 in - Calm Calm - N/A   Clear
6:20 AM 62.6 °F 55.4 °F 77% 30.06 in - Calm Calm - N/A   Clear
6:30 AM 62.6 °F 55.4 °F 77% 30.06 in - Calm Calm - N/A   Clear
7:20 AM 64.4 °F 55.4 °F 73% 30.06 in - Calm Calm - N/A   Clear
8:20 AM 69.8 °F 53.6 °F 56% 30.09 in 4.3 mi NNE 6.9 mph - N/A   Clear
8:30 AM 69.8 °F 53.6 °F 56% 30.09 in 4.3 mi NNE 6.9 mph - N/A   Clear
9:20 AM 73.4 °F 53.6 °F 50% 30.12 in 4.3 mi East 6.9 mph - N/A   Clear
9:30 AM 74 °F 54 °F 39% 30.14 in 4 mi East 6.7 mph - -   Haze
9:30 AM 73.4 °F 53.6 °F 50% 30.12 in 4.3 mi East 6.9 mph - N/A   Clear
10:30 AM 77.0 °F 59.0 °F 54% 30.12 in 4.3 mi SSE 4.6 mph - N/A   Clear
11:30 AM 75.2 °F 59.0 °F 57% 30.09 in 4.3 mi South 9.2 mph - N/A   Clear
12:30 PM 77.0 °F 60.8 °F 57% 30.06 in 4.3 mi South 9.2 mph - N/A   Clear
1:30 PM 78.8 °F 60.8 °F 54% 30.06 in 4.3 mi South 9.2 mph - N/A   Clear
2:30 PM 78.8 °F 62.6 °F 57% 30.06 in 4.3 mi SE 11.5 mph - N/A   Clear
3:30 PM 78 °F 59 °F 43% 30.08 in 4 mi SSE 13.4 mph - -   Haze
3:30 PM 78.8 °F 59.0 °F 51% 30.06 in 4.3 mi SSE 13.8 mph - N/A   Clear
4:30 PM 77.0 °F 60.8 °F 57% 30.06 in 4.3 mi South 11.5 mph - N/A   Clear
5:30 PM 73.4 °F 59.0 °F 61% 30.06 in 4.3 mi South 13.8 mph - N/A   Clear
6:30 PM 71.6 °F 59.0 °F 64% 30.04 in 4.3 mi WSW 6.9 mph - N/A   Clear
7:30 PM 69.8 °F 60.8 °F 73% 30.04 in 4.3 mi West 6.9 mph - N/A   Clear
8:30 PM 71.6 °F 59.0 °F 64% 30.04 in 4.3 mi Calm Calm - N/A   Unknown
9:30 PM 68 °F 63 °F 78% 30.06 in 4 mi West 4.5 mph - -   Haze
9:30 PM 68.0 °F 62.6 °F 83% 30.04 in 4.3 mi West 4.6 mph - N/A   Clear